MACSAT 2 (M 2) 1 20608U 90043B 12035.95704970 +.00000467 +00000-0 +65392-4 0 05592 2 20608 089.7366 050.6648 0095936 101.3709 259.8307 14.72574470164993 TUBSAT A 1 21577U 91050D 12037.52506903 .00000105 00000-0 48881-4 0 2857 2 21577 098.5924 353.2386 0007076 054.9196 305.2655 14.38716247 78852 S80/T 1 22078U 92052C 12035.42972741 -.00000037 +00000-0 +10000-3 0 01249 2 22078 066.0870 103.8884 0013831 230.6372 129.3404 12.86745423915548 HEALTHSAT 1 1 22827U 93061E 12037.06958515 .00000130 00000-0 66604-4 0 498 2 22827 098.5528 344.3135 0008141 277.0024 083.0234 14.30389537958004 TUBSAT B 1 22970U 94003B 12035.50845403 +.00000051 +00000-0 +10000-3 0 08131 2 22970 082.5603 190.4521 0016497 006.8528 353.2812 13.16926204866642 CERISE 1 23606U 95033B 12036.86829875 .00001961 00000-0 22753-3 0 6628 2 23606 098.3519 213.1101 0005501 215.8287 144.2557 14.86663664894927 UPM/LBSAT 1 23607U 95033C 12037.37093868 .00000458 00000-0 75194-4 0 8924 2 23607 098.1872 148.2983 0006914 061.7538 298.4345 14.75380711891178 FAISAT 2V 1 24954U 97052B 12037.23323415 .00000078 00000-0 60755-4 0 3775 2 24954 082.9235 313.5799 0038751 303.3228 056.4220 13.79724301723601 MUBLCOM 1 25736U 99026B 12035.66591825 +.00000528 +00000-0 +16106-3 0 05440 2 25736 097.7039 257.9744 0005513 344.0752 016.0264 14.45333873669772 RUBIN 3/SL-8 1 27561U 02054C 12036.79602560 .00000269 00000-0 73056-4 0 5065 2 27561 097.9808 198.9710 0048133 125.2943 235.2776 14.54096265487524 APRIZESAT 2 1 28366U 04025A 12035.43297197 +.00000048 +00000-0 +28975-4 0 01167 2 28366 098.2044 353.6901 0109359 156.5403 204.0803 14.35792051398297 SAUDICOMSAT 1 1 28369U 04025D 12036.52683391 .00000265 00000-0 77355-4 0 1657 2 28369 097.9602 040.2018 0033441 316.3378 043.5186 14.50946068402628 SAUDICOMSAT 2 1 28370U 04025E 12036.57555885 .00000339 00000-0 10484-3 0 1684 2 28370 098.0408 022.9731 0059321 015.4892 344.8089 14.46034296401273 APRIZESAT 1 1 28372U 04025G 12037.03645935 .00000217 00000-0 68416-4 0 1532 2 28372 097.9982 031.0628 0047059 343.9305 016.0399 14.48421550402008 NANOSAT(1) 1 28493U 04049B 12036.69223252 .00000444 00000-0 81070-4 0 1529 2 28493 098.3769 033.4498 0005730 090.3546 269.8309 14.70977336382763 SAUDICOMSAT 7 1 31119U 07012C 12036.83534906 .00000391 00000-0 88724-4 0 4547 2 31119 097.8640 071.7847 0062978 112.7816 248.0029 14.59830176256061 SAUDICOMSAT 6 1 31121U 07012E 12037.51105610 .00000370 00000-0 89075-4 0 4561 2 31121 097.8681 063.7074 0079487 136.7264 224.0222 14.56679200255624 SAUDICOMSAT 5 1 31124U 07012H 12037.53519710 .00000405 00000-0 89121-4 0 4624 2 31124 097.8648 077.3442 0054449 097.7856 262.9539 14.61438675256442 SAUDICOMSAT 3 1 31125U 07012J 12036.77789643 .00000416 00000-0 88749-4 0 4744 2 31125 097.8689 081.2811 0046061 088.2533 272.3935 14.62991942256605 SAUDICOMSAT 4 1 31127U 07012L 12037.03815002 .00000385 00000-0 89803-4 0 4652 2 31127 097.8653 067.8768 0070899 124.4475 236.3426 14.58347323255835 OMID (Decayed 2009-04-25) 1 33506U 09004A 09114.86154729 .06921312 12321-4 12316-3 0 2702 2 33506 055.4370 280.8401 0011504 012.0650 349.7794 16.46787765 12981 APRIZESAT 4 1 35684U 09041D 12036.87678912 .00000601 00000-0 92324-4 0 7944 2 35684 098.0678 307.9309 0048609 282.6653 076.9099 14.76550160135897 APRIZESAT 3 1 35686U 09041F 12036.80345544 .00000710 00000-0 89534-4 0 8009 2 35686 098.0875 318.0828 0077646 257.2849 101.9724 14.83260726136489 AISSAT 1 1 36797U 10035C 12037.43585577 .00000715 00000-0 98559-4 0 6763 2 36797 098.0742 112.9947 0011242 242.4656 117.5417 14.81310781 84985